Location: Bruch
(44.2051°N, 0.4120°E)
Time: 06:01:41
(UTC+00:00)

PAYLOAD B - Pass Details

Date: 29 November 2020
Orbit: 849 x 871 km, 99.1° (Epoch: 27 January)

Event Time Altitude Azimuth Distance (km) Brightness Sun altitude
Rises 06:16:15 0° 13° (NNE) 3,435 7.3 -9.8°
Reaches altitude 10° 06:18:38 10° 13° (NNE) 2,492 6.6 -9.4°
Maximum altitude 06:24:10 84° 287° (WNW) 862 4.2 -8.5°
Drops below altitude 10° 06:29:39 10° 199° (SSW) 2,468 6.7 -7.6°
Sets 06:32:00 0° 199° (SSW) 3,399 7.4 -7.2°
